CAPE
42 0 0 1 5 384 427 274 92 455 35 27 29 46 412 886 369 25 658 204 96 587 505 362 497 418 439 707 650 771 1108 1384 1502 1400 1348 1370 1291 1226 1208 1109 988 835 661 537 495 520 586 595 549
0 0 0 10 11 89 252 286 93 349 215 196 238 667 765 1083 636 518 490 450 178 509 293 700 587 592 361 572 697 869 1069 1127 1316 1423 1330 1179 1090 1035 1000 895 735 613 472 384 335 372 473 552 511
0 0 0 2 11 4 239 285 225 288 213 314 130 714 968 966 740 606 513 408 297 256 17 137 507 643 436 550 712 879 970 1129 1258 1276 1222 1124 1070 1004 919 804 693 579 503 545 460 449 508 551 588
0 0 0 0 0 2 33 433 462 178 110 266 471 993 1250 1166 630 628 407 213 140 151 62 177 264 542 442 572 643 817 920 1049 1200 1274 1228 1080 967 847 769 731 705 722 747 764 665 661 687 664 688
0 0 0 0 153 437 316 369 347 266 158 183 491 929 1427 1013 1021 510 269 182 172 290 202 85 104 451 517 303 530 564 869 1054 1180 1220 1208 1079 977 897 866 872 914 949 920 877 845 914 938 849 923
0 0 0 0 14 536 461 382 305 120 718 771 913 1258 1034 1036 564 383 153 176 226 219 356 222 407 263 598 212 406 639 817 1074 1157 1160 1128 1032 939 905 941 1019 1078 1125 1146 1136 1104 1166 1514 1492 1421
0 0 0 0 16 566 409 301 250 15 526 833 838 1120 1020 389 184 210 240 213 292 366 270 344 413 584 453 616 606 852 737 747 927 981 1105 1034 964 997 1072 1200 1203 1220 1414 1463 1592 1819 2002 1957 1930
0 0 0 17 0 164 567 227 179 191 412 453 538 1079 900 479 228 127 78 69 67 177 468 440 464 637 615 375 917 924 806 803 932 983 1043 1106 1068 859 577 564 790 1015 1271 1498 1822 2104 2367 2312 2274
0 0 0 0 19 59 450 283 138 124 342 773 870 902 1106 586 310 135 97 87 28 15 73 294 382 777 363 525 658 856 949 987 1019 1004 869 761 696 543 374 698 627 643 819 1156 1355 1251 1570 1765 1761
0 0 0 0 0 141 518 256 224 214 292 647 1303 1318 1010 756 404 253 153 21 1 0 0 0 44 224 320 252 478 762 742 760 904 755 749 478 426 392 472 507 560 497 489 467 459 416 430 456 570
0 0 0 0 0 348 444 307 310 332 345 669 1262 1370 916 657 427 65 5 0 0 0 0 0 0 0 71 142 284 410 431 491 495 446 351 339 271 515 666 809 864 851 438 727 690 757 802 833 826
0 0 0 365 130 286 408 333 282 277 153 187 672 1035 895 1103 488 67 20 1 18 38 35 50 43 59 58 312 277 259 316 217 116 31 156 676 766 715 588 493 461 486 468 409 442 442 481 583 731
0 0 331 367 289 219 273 294 296 159 190 210 852 1304 1756 1066 508 261 255 137 158 257 259 308 320 326 396 374 428 272 174 84 104 117 126 224 414 317 400 539 551 514 436 353 189 118 162 324 458
0 247 255 368 225 124 245 184 180 17 125 243 473 1438 1467 1020 798 386 399 417 434 461 442 426 416 504 508 473 373 249 173 143 164 204 237 282 309 363 419 524 573 593 573 426 182 206 218 213 169
58 227 393 352 289 165 178 169 49 74 131 260 592 744 1273 1280 945 686 498 604 673 684 707 593 473 562 555 482 388 269 176 151 144 145 162 205 263 339 355 358 370 413 344 246 291 319 308 297 306
4 169 0 363 328 221 168 380 105 89 97 277 456 849 1222 1771 899 734 704 780 815 863 882 781 494 400 427 486 487 407 321 255 203 176 159 165 192 198 221 232 261 286 336 397 456 483 497 479 429
0 0 8 568 534 421 324 627 267 63 139 273 347 413 832 982 894 651 478 455 481 440 476 568 588 433 315 316 386 399 377 330 273 254 245 256 265 265 274 290 366 342 222 221 286 292 289 285 265
0 0 5 109 505 563 322 382 269 180 146 189 396 357 337 378 431 390 342 315 306 274 273 259 274 197 147 155 151 185 227 261 251 231 194 165 128 129 152 201 301 386 318 200 164 71 75 85 87
0 0 0 0 268 382 324 591 432 227 178 246 271 351 418 443 452 486 472 409 416 385 298 238 245 234 187 198 171 147 205 260 293 304 275 306 347 355 439 398 281 222 143 78 52 12 12 30 0
0 0 0 0 181 495 653 340 324 294 250 114 342 383 472 533 598 601 598 578 503 478 407 319 214 155 141 106 113 95 58 65 132 166 203 255 270 242 209 127 117 56 17 0 0 0 0 0 0
0 0 0 0 0 213 279 352 133 86 167 278 162 206 283 347 501 561 543 532 472 263 65 0 0 0 0 1 21 48 17 29 89 136 124 95 103 79 5 0 0 0 0 0 0 0 0 0 0
0 0 0 0 0 0 6 0 0 108 101 224 195 287 56 54 186 227 118 52 14 0 0 0 0 0 0 0 1 27 58 78 78 87 26 0 0 0 0 0 0 0 0 0 0 0 0 0 0
0 0 0 0 0 0 0 0 0 0 0 0 32 191 167 35 21 0 0 0 0 0 0 0 0 0 0 0 0 0 0 0 0 0 0 0 0 0 0 0 0 0 0 0 0 0 0 0 0
0 0 0 0 0 0 0 0 0 0 0 0 0 1 70 63 23 17 0 0 0 0 0 0 0 0 0 0 0 0 0 0 0 0 0 0 0 0 0 0 0 0 0 0 0 0 0 0 0
0 0 0 0 0 0 0 0 0 0 0 0 0 0 0 23 36 26 8 2 1 0 0 0 0 0 0 0 0 0 0 0 0 0 0 0 0 0 0 0 0 0 0 0 0 0 0 0 0
0 0 0 0 0 0 0 0 0 0 0 0 0 0 0 0 43 51 20 9 11 11 0 0 0 0 0 0 0 0 0 0 0 0 0 0 0 0 0 0 0 0 0 0 0 0 0 0 0
2 0 0 1 0 0 0 0 0 0 0 0 0 0 0 1 30 63 42 29 28 17 0 0 0 0 0 0 0 0 0 0 0 0 0 0 0 0 0 0 0 0 0 0 0 0 0 0 0
52 11 65 12 0 0 0 0 0 0 0 0 0 0 0 0 17 50 85 90 62 2 0 0 0 0 0 0 0 0 0 0 0 0 0 0 0 0 0 0 0 0 0 0 0 0 0 0 0
81 144 60 71 56 75 24 18 0 0 0 0 0 0 0 1 9 25 46 70 10 0 0 0 0 0 0 0 1 0 1 0 1 1 0 0 0 0 0 0 0 0 0 0 0 0 0 0 0
149 159 139 247 156 140 37 10 0 1 0 2 0 0 0 0 8 2 1 6 2 0 0 0 4 0 0 0 0 0 0 0 0 0 0 0 0 0 0 0 0 0 0 0 0 0 0 0 0
CIN
-611 0 0 -3 -96 -33 -47 -78 -190 -98 -143 -163 -19 -77 -86 -118 -105 -72 -153 -211 -230 -71 -62 -61 -32 -29 -25 -18 -20 -11 -1 0 0 0 0 0 0 0 -2 -7 -21 -18 -26 -51 -55 -54 -60 -62 -58
0 0 0 -88 -98 -30 -36 -120 -115 -128 -136 -138 -116 -79 -79 -104 -170 -198 -170 -156 -187 -85 -99 -28 -28 -16 -36 -29 -16 -8 -1 0 0 0 0 -4 -13 -19 -22 -28 -38 -38 -55 -71 -75 -82 -77 -77 -77
0 0 0 -90 -159 -15 -26 -103 -117 -102 -97 -93 -126 -97 -84 -95 -135 -142 -162 -156 -136 -128 -53 -138 -43 -19 -42 -35 -11 -4 -1 0 0 0 -2 -17 -30 -40 -44 -44 -56 -52 -57 -68 -73 -79 -84 -84 -85
0 0 0 0 -9 -107 -160 -102 -88 -84 -102 -79 -113 -75 -42 -34 -103 -118 -160 -187 -190 -165 -210 -135 -99 -48 -65 -51 -24 -8 -1 0 0 0 -5 -19 -38 -57 -71 -69 -63 -56 -47 -58 -71 -69 -74 -82 -90
0 0 0 0 -78 -160 -183 -111 -113 -79 -107 -149 -108 -86 -36 -45 -37 -140 -177 -175 -171 -119 -126 -180 -143 -62 -55 -86 -45 -23 -5 0 0 0 -6 -21 -44 -61 -76 -76 -72 -61 -57 -55 -53 -63 -53 -68 -85
0 0 0 0 -180 -159 -192 -186 -127 -82 -109 -102 -89 -73 -55 -41 -92 -139 -198 -162 -135 -142 -90 -109 -51 -84 -37 -98 -62 -18 -4 -1 0 0 -7 -28 -44 -64 -65 -67 -58 -54 -43 -52 -51 -52 -34 -29 -58
0 0 0 0 -202 -114 -181 -243 -155 -136 -122 -129 -113 -71 -59 -125 -183 -172 -174 -145 -133 -115 -122 -81 -55 -25 -42 -30 -31 -5 -13 -11 -5 -7 -4 -16 -25 -41 -41 -36 -36 -36 -32 -28 -24 -15 -14 -23 -30
0 0 0 -179 0 -103 -209 -217 -164 -196 -210 -157 -138 -53 -68 -131 -178 -202 -255 -220 -243 -188 -95 -73 -65 -31 -30 -68 -10 -6 -12 -17 -9 -7 -6 -7 -22 -58 -102 -129 -95 -79 -68 -55 -34 -24 -15 -29 -45
0 0 0 0 -143 -154 -244 -193 -178 -275 -207 -194 -146 -89 -80 -146 -166 -205 -217 -213 -342 -215 -135 -133 -102 -34 -95 -71 -49 -20 -12 -12 -8 -16 -29 -40 -51 -85 -120 -107 -130 -163 -143 -106 -92 -104 -88 -96 -93
0 0 0 0 0 -158 -172 -181 -280 -266 -238 -209 -93 -65 -99 -113 -150 -174 -181 -295 0 0 0 0 -73 -146 -121 -124 -82 -40 -42 -36 -25 -48 -55 -86 -105 -124 -126 -128 -79 -208 -220 -219 -227 -245 -204 -74 -78
0 0 0 0 0 -217 -164 -233 -108 -236 -180 -196 -134 -91 -121 -156 -157 -327 -46 0 0 0 0 0 0 0 -213 -186 -142 -116 -104 -101 -97 -112 -142 -147 -150 -105 -81 -65 -71 -96 -197 -97 -107 -94 -77 -77 -64
0 0 -18 -164 -300 -267 -185 -228 -90 -108 -158 -253 -236 -154 -155 -93 -163 -146 -169 -20 -347 -309 -294 -270 -261 -212 -234 -136 -164 -160 -158 -184 -243 -298 -240 -102 -76 -100 -121 -124 -90 -85 -86 -77 -169 -143 -180 -143 -116
0 0 -158 -185 -163 -286 -232 -85 -73 -114 -248 -200 -181 -95 -19 -89 -144 -108 -88 -119 -226 -181 -175 -157 -129 -121 -83 -121 -114 -129 -159 -219 -190 -158 -157 -161 -127 -73 -90 -82 -78 -81 -95 -104 -136 -268 -309 -226 -187
0 -124 -152 -126 -93 -52 -86 -62 -98 -257 -241 -181 -223 -52 -38 -65 -71 -100 -86 -58 -53 -118 -102 -72 -82 -85 -78 -84 -88 -109 -137 -135 -143 -130 -120 -102 -92 -71 -68 -71 -64 -63 -74 -107 -191 -200 -208 -217 -266
-173 -78 -113 -101 -70 -68 -28 -33 -104 -131 -189 -186 -173 -133 -51 -41 -45 -76 -97 -63 -61 -47 -64 -52 -95 -65 -72 -90 -83 -102 -145 -176 -181 -182 -197 -213 -168 -121 -110 -111 -112 -109 -121 -163 -169 -176 -188 -184 -177
-38 -72 0 -102 -24 -17 -65 -23 -25 -124 -153 -162 -183 -125 -55 -10 -59 -61 -79 -65 -60 -54 -52 -56 -80 -104 -83 -71 -82 -87 -91 -120 -115 -134 -187 -182 -172 -164 -169 -160 -160 -155 -137 -129 -127 -142 -153 -168 -175
0 0 -48 -52 -77 -57 -48 -13 -44 -86 -99 -161 -113 -161 -98 -61 -62 -79 -100 -104 -93 -102 -104 -81 -79 -97 -98 -118 -116 -105 -113 -113 -125 -137 -134 -149 -157 -162 -161 -148 -125 -143 -197 -161 -137 -155 -194 -206 -153
0 -5 -137 -27 -55 -28 -40 -37 -31 -66 -104 -154 -96 -120 -105 -113 -98 -88 -116 -126 -120 -112 -112 -127 -115 -122 -113 -82 -171 -173 -156 -132 -132 -143 -164 -187 -231 -248 -234 -193 -120 -102 -114 -109 -107 -80 -72 -80 -64
0 0 0 -1 -86 -27 -48 -51 -27 -19 -55 -64 -118 -132 -104 -89 -74 -80 -65 -83 -73 -82 -95 -115 -110 -102 -109 -113 -104 -125 -107 -94 -94 -97 -118 -139 -116 -133 -110 -112 -110 -120 -114 -87 -71 -92 -72 -53 -1
0 0 0 0 -80 -38 -22 -46 -28 -41 -17 -36 -50 -72 -67 -82 -80 -72 -82 -70 -78 -89 -86 -86 -94 -92 -116 -133 -115 -128 -141 -166 -127 -142 -124 -116 -122 -115 -117 -108 -100 -131 -114 0 0 0 0 0 0
0 0 0 0 0 -45 -35 -21 -42 -48 -37 -28 -29 -125 -121 -128 -84 -78 -86 -89 -91 -99 -69 0 0 0 0 -89 -113 -90 -126 -171 -134 -110 -102 -107 -90 -116 -60 0 0 0 0 0 0 0 0 0 0
0 0 0 0 0 0 -4 0 0 -39 -60 -34 -50 -45 -108 -218 -159 -139 -183 -176 -145 0 0 0 0 0 0 0 -74 -103 -90 -84 -94 -99 -115 0 0 0 0 0 0 0 0 0 0 0 0 0 0
0 0 0 0 0 0 0 0 0 0 0 0 -142 -86 -72 -86 -204 -6 0 0 0 0 0 0 0 0 0 0 0 0 0 0 0 0 0 0 0 0 0 0 0 0 0 0 0 0 0 0 0
0 0 0 0 0 0 0 0 0 0 0 0 0 -38 -137 -101 -106 -103 0 0 0 0 0 0 0 0 0 0 0 0 0 0 0 0 0 0 0 0 0 0 0 0 0 0 0 0 0 0 0
0 0 0 0 0 0 0 0 0 0 0 0 0 0 0 -159 -125 -110 -102 -142 -85 0 0 0 0 0 0 0 0 0 0 0 0 0 0 0 0 0 0 0 0 0 0 0 0 0 0 0 0
0 0 0 0 0 0 0 0 0 0 0 0 0 0 0 -20 -159 -137 -111 -127 -103 -87 0 0 0 0 0 0 0 0 0 0 0 0 0 0 0 0 0 0 0 0 0 0 0 0 0 0 0
-4 0 0 -22 0 0 0 0 0 0 0 0 0 0 0 -157 -191 -156 -113 -97 -93 -126 -38 0 0 0 0 0 0 0 0 0 0 0 0 0 0 0 0 0 0 0 0 0 0 0 0 0 0
-41 -28 -23 -28 0 0 0 0 0 0 0 0 0 0 0 0 -204 -168 -125 -92 -122 -49 0 0 0 0 0 0 0 0 0 0 0 0 0 0 0 0 0 0 0 0 0 0 0 0 0 0 0
-10 -6 -52 -56 -49 0 -1 -6 0 0 0 0 0 0 0 -15 -61 -184 -157 -128 -130 0 0 0 0 0 0 0 0 0 0 0 -1 0 0 0 0 0 0 0 0 0 0 0 0 0 0 0 0
-39 -19 -30 -2 -3 -16 -26 -31 -15 -7 0 -6 0 0 0 0 -44 -38 -10 -9 0 0 0 0 0 0 0 0 0 0 0 0 0 0 0 0 0 0 0 0 0 0 0 0 0 0 0 0 0
Wind_Speed
nan nan nan nan nan 7 4 2 nan 4 nan nan nan nan 3 6 6 nan 3 7 nan 15 16 17 16 16 16 16 15 16 16 16 14 14 13 11 9 7 7 7 7 7 7 5 3 3 5 6 7
nan nan nan nan nan nan 2 9 nan 1 2 7 1 2 5 4 4 5 7 9 16 15 15 17 17 17 16 14 13 14 15 15 14 14 12 11 9 8 8 8 7 6 4 2 2 3 5 9 10
nan nan nan nan nan nan 2 8 7 3 5 3 3 9 5 10 4 5 8 17 14 15 nan 19 20 19 19 18 14 13 14 13 12 11 10 10 8 6 5 6 5 3 2 2 3 4 6 7 8
nan nan nan nan nan nan nan 6 1 1 1 2 7 10 6 12 3 1 14 17 19 17 nan 18 20 19 20 19 15 13 11 11 9 9 7 5 4 3 3 5 6 5 3 2 5 6 8 9 10
nan nan nan nan 9 5 11 2 3 3 5 1 5 4 8 12 9 12 14 13 16 16 12 nan 17 18 15 16 14 11 10 9 8 7 5 3 1 1 4 7 8 9 8 6 9 11 8 9 12
nan nan nan nan nan 8 10 5 4 3 10 10 8 3 1 15 12 12 10 12 12 15 12 14 16 16 13 14 13 9 6 7 7 6 3 2 1 3 5 8 9 10 10 11 14 13 12 12 15
nan nan nan nan nan 12 12 9 5 nan 17 9 7 7 6 13 12 12 12 14 13 15 17 15 16 15 14 12 12 9 6 4 4 3 2 2 2 4 5 7 9 11 12 12 14 14 16 15 12
nan nan nan nan nan 12 12 15 15 13 16 8 11 8 5 7 10 11 nan nan nan 15 16 17 17 16 13 11 11 9 7 5 3 2 2 4 4 6 6 8 6 10 12 13 13 12 11 13 12
nan nan nan nan nan nan 13 13 11 13 19 15 11 14 18 15 14 12 nan nan nan nan nan 17 16 14 12 10 7 7 5 3 1 2 7 4 5 6 6 10 11 10 10 9 11 11 10 8 5
nan nan nan nan nan 15 17 16 22 14 24 19 19 21 19 14 11 14 18 nan nan nan nan nan nan 10 10 8 7 5 3 3 3 3 2 4 6 6 7 8 10 13 13 12 12 11 7 7 9
nan nan nan nan nan 24 24 26 18 18 17 18 21 18 17 15 14 nan nan nan nan nan nan nan nan nan nan 8 8 6 4 6 5 4 3 4 6 8 10 10 11 11 12 9 9 9 9 11 10
nan nan nan 33 27 30 28 34 26 17 15 19 25 22 22 21 17 nan nan nan nan nan nan nan nan nan nan 12 11 11 9 9 9 nan 8 8 9 12 13 13 14 12 11 11 11 9 9 10 11
nan nan 31 35 35 34 39 33 31 27 25 23 26 26 26 26 25 23 23 23 23 24 23 19 15 13 11 14 15 16 15 nan 13 12 13 12 13 15 14 15 15 15 14 13 12 11 9 9 10
nan 28 32 33 38 40 39 38 32 nan 30 31 34 36 28 29 32 29 24 23 22 22 22 21 16 15 16 16 19 19 16 16 16 16 17 18 16 15 16 16 15 15 14 13 11 10 9 9 11
nan 28 30 32 35 41 44 38 nan nan 35 35 36 34 29 25 29 30 31 31 26 23 21 21 18 16 19 20 20 20 20 20 20 21 24 24 20 19 17 15 15 15 15 13 12 13 13 11 12
nan 28 nan 30 31 40 37 26 38 nan nan 30 29 33 30 27 26 26 30 33 32 31 28 26 21 22 23 23 23 23 23 24 22 21 23 28 29 27 21 19 19 19 19 18 18 18 17 18 17
nan nan nan 26 29 37 35 33 41 nan 38 37 32 32 30 29 25 24 30 35 35 31 30 30 30 28 29 29 28 29 30 28 27 26 25 29 30 29 27 26 25 24 23 25 25 25 26 27 25
nan nan nan 19 26 29 31 30 42 39 37 37 35 33 30 29 26 24 27 33 33 35 35 34 34 34 33 33 34 35 36 34 32 30 30 30 31 33 30 30 31 30 31 33 35 nan nan nan nan
nan nan nan nan 29 27 21 22 34 37 38 38 35 31 32 35 31 26 26 31 35 36 38 38 38 40 38 41 44 44 43 43 41 39 39 39 39 40 36 35 37 39 40 nan nan nan nan nan nan
nan nan nan nan 31 28 19 15 37 34 28 30 33 33 33 29 31 31 31 30 31 35 37 40 41 41 43 48 53 nan nan nan 46 45 46 47 49 49 43 43 42 nan nan nan nan nan nan nan nan
nan nan nan nan nan 37 34 25 29 nan 28 32 32 32 29 31 34 36 37 35 34 37 nan nan nan nan nan nan nan nan nan nan nan 46 46 nan 55 nan nan nan nan nan nan nan nan nan nan nan nan
nan nan nan nan nan nan nan nan nan 29 31 29 30 32 nan nan 33 36 36 nan nan nan nan nan nan nan nan nan nan nan nan nan nan nan nan nan nan nan nan nan nan nan nan nan nan nan nan nan nan
nan nan nan nan nan nan nan nan nan nan nan nan nan 30 33 nan nan nan nan nan nan nan nan nan nan nan nan nan nan nan nan nan nan nan nan nan nan nan nan nan nan nan nan nan nan nan nan nan nan
nan nan nan nan nan nan nan nan nan nan nan nan nan nan nan nan nan nan nan nan nan nan nan nan nan nan nan nan nan nan nan nan nan nan nan nan nan nan nan nan nan nan nan nan nan nan nan nan nan
nan nan nan nan nan nan nan nan nan nan nan nan nan nan nan nan nan nan nan nan nan nan nan nan nan nan nan nan nan nan nan nan nan nan nan nan nan nan nan nan nan nan nan nan nan nan nan nan nan
nan nan nan nan nan nan nan nan nan nan nan nan nan nan nan nan nan nan nan nan nan nan nan nan nan nan nan nan nan nan nan nan nan nan nan nan nan nan nan nan nan nan nan nan nan nan nan nan nan
nan nan nan nan nan nan nan nan nan nan nan nan nan nan nan nan nan nan nan nan nan nan nan nan nan nan nan nan nan nan nan nan nan nan nan nan nan nan nan nan nan nan nan nan nan nan nan nan nan
nan nan nan nan nan nan nan nan nan nan nan nan nan nan nan nan nan nan nan nan nan nan nan nan nan nan nan nan nan nan nan nan nan nan nan nan nan nan nan nan nan nan nan nan nan nan nan nan nan
nan 43 nan nan nan nan nan nan nan nan nan nan nan nan nan nan nan nan nan nan nan nan nan nan nan nan nan nan nan nan nan nan nan nan nan nan nan nan nan nan nan nan nan nan nan nan nan nan nan
46 47 46 42 41 46 nan nan nan nan nan nan nan nan nan nan nan nan nan nan nan nan nan nan nan nan nan nan nan nan nan nan nan nan nan nan nan nan nan nan nan nan nan nan nan nan nan nan nan
Wind_Direction
nan nan nan nan nan 222 202 133 nan 301 nan nan nan nan 133 163 120 nan 340 4 nan 347 347 348 343 338 332 335 332 336 345 348 345 349 349 350 349 360 4 6 4 10 17 20 31 98 137 139 130
nan nan nan nan nan nan 208 137 nan 151 28 105 206 341 197 145 149 299 317 346 338 336 339 343 334 322 324 320 331 329 329 332 337 340 347 352 354 6 17 16 18 19 14 8 15 73 111 132 135
nan nan nan nan nan nan 54 120 125 125 145 108 190 207 191 172 165 322 308 325 325 321 nan 333 326 322 325 325 335 334 333 332 334 336 347 351 357 12 30 44 42 34 10 53 57 90 117 134 129
nan nan nan nan nan nan nan 178 237 80 121 62 335 246 218 193 218 225 329 328 321 318 nan 323 325 325 326 331 331 337 337 335 332 332 344 0 357 6 77 108 124 134 153 137 104 111 118 120 116
nan nan nan nan 176 202 156 155 307 285 276 242 23 330 224 192 249 318 330 323 310 313 318 nan 324 324 332 333 332 343 340 333 333 340 332 10 50 168 136 132 134 142 146 133 113 116 111 107 106
nan nan nan nan nan 176 214 273 334 336 316 308 297 338 209 189 267 304 310 304 309 307 299 308 312 315 325 327 333 339 334 325 328 338 329 356 125 174 152 139 131 131 138 130 122 114 109 101 103
nan nan nan nan nan 185 235 261 307 nan 292 278 273 185 159 206 243 273 293 292 298 298 293 290 300 303 311 318 325 327 323 323 308 302 230 181 175 164 146 141 122 119 124 130 136 133 129 124 113
nan nan nan nan nan 213 242 245 268 301 269 275 174 187 203 264 275 287 nan nan nan 292 290 288 280 284 296 307 314 320 327 332 320 303 198 184 176 204 179 135 166 131 126 138 141 141 138 134 130
nan nan nan nan nan nan 254 253 246 292 297 262 247 207 263 278 288 285 nan nan nan nan nan 286 288 279 272 277 295 318 326 334 308 295 239 208 220 200 177 194 177 195 201 206 201 195 179 172 166
nan nan nan nan nan 237 250 251 273 290 305 286 258 250 276 279 284 294 302 nan nan nan nan nan nan 288 298 291 293 287 310 282 294 323 276 233 215 214 196 208 222 235 225 246 242 225 230 229 232
nan nan nan nan nan 259 268 269 254 293 317 311 315 281 265 264 279 nan nan nan nan nan nan nan nan nan nan 303 283 281 302 306 308 278 249 239 221 218 220 220 226 228 235 245 251 256 244 233 238
nan nan nan 233 252 263 268 269 261 250 266 293 307 287 280 281 283 nan nan nan nan nan nan nan nan nan nan 289 275 268 288 285 270 nan 229 236 239 238 233 234 236 239 244 236 242 246 242 244 249
nan nan 235 238 250 256 266 266 267 260 263 279 300 288 272 268 270 270 275 280 284 284 288 283 284 284 283 279 275 270 268 nan 254 243 234 231 238 241 240 237 240 241 237 238 240 239 236 239 249
nan 234 239 243 249 245 263 262 265 nan 278 280 291 295 270 269 265 262 263 265 265 274 277 276 281 289 286 274 272 270 264 264 255 246 238 240 243 246 249 253 250 251 247 246 247 246 244 245 246
nan 249 242 248 248 242 257 257 nan nan 286 288 290 283 271 271 262 259 253 244 246 247 258 262 270 273 282 279 267 261 261 261 259 262 253 250 243 249 248 248 251 250 252 249 255 252 251 252 258
nan 253 nan 245 251 249 250 271 266 nan nan 288 289 278 280 279 269 258 241 237 240 245 243 243 249 261 264 266 268 263 257 258 257 255 255 255 256 249 249 251 250 251 255 257 254 247 240 250 253
nan nan nan 245 251 252 259 260 269 nan 281 282 282 282 290 285 274 258 248 240 240 246 248 247 250 253 258 257 259 257 255 252 251 250 249 251 252 249 252 252 253 254 261 262 265 265 255 250 249
nan nan nan 262 270 263 267 260 268 275 278 278 280 282 285 290 272 266 254 245 245 250 255 258 256 259 258 255 256 253 252 250 249 251 253 252 258 257 261 265 264 262 267 265 262 nan nan nan nan
nan nan nan nan 254 265 269 259 268 275 276 280 284 287 293 302 281 265 257 250 251 251 256 257 264 264 261 255 250 242 242 244 245 246 248 253 256 256 258 265 267 268 269 nan nan nan nan nan nan
nan nan nan nan 267 275 274 265 270 272 277 282 286 291 297 286 287 276 264 254 250 252 255 261 265 266 263 261 260 nan nan nan 241 246 247 249 252 251 253 258 261 nan nan nan nan nan nan nan nan
nan nan nan nan nan 266 253 249 262 nan 274 285 293 293 293 295 283 277 277 277 266 266 nan nan nan nan nan nan nan nan nan nan nan 250 253 nan 258 nan nan nan nan nan nan nan nan nan nan nan nan
nan nan nan nan nan nan nan nan nan 274 278 282 291 298 nan nan 278 279 280 nan nan nan nan nan nan nan nan nan nan nan nan nan nan nan nan nan nan nan nan nan nan nan nan nan nan nan nan nan nan
nan nan nan nan nan nan nan nan nan nan nan nan nan 307 301 nan nan nan nan nan nan nan nan nan nan nan nan nan nan nan nan nan nan nan nan nan nan nan nan nan nan nan nan nan nan nan nan nan nan
nan nan nan nan nan nan nan nan nan nan nan nan nan nan nan nan nan nan nan nan nan nan nan nan nan nan nan nan nan nan nan nan nan nan nan nan nan nan nan nan nan nan nan nan nan nan nan nan nan
nan nan nan nan nan nan nan nan nan nan nan nan nan nan nan nan nan nan nan nan nan nan nan nan nan nan nan nan nan nan nan nan nan nan nan nan nan nan nan nan nan nan nan nan nan nan nan nan nan
nan nan nan nan nan nan nan nan nan nan nan nan nan nan nan nan nan nan nan nan nan nan nan nan nan nan nan nan nan nan nan nan nan nan nan nan nan nan nan nan nan nan nan nan nan nan nan nan nan
nan nan nan nan nan nan nan nan nan nan nan nan nan nan nan nan nan nan nan nan nan nan nan nan nan nan nan nan nan nan nan nan nan nan nan nan nan nan nan nan nan nan nan nan nan nan nan nan nan
nan nan nan nan nan nan nan nan nan nan nan nan nan nan nan nan nan nan nan nan nan nan nan nan nan nan nan nan nan nan nan nan nan nan nan nan nan nan nan nan nan nan nan nan nan nan nan nan nan
nan 270 nan nan nan nan nan nan nan nan nan nan nan nan nan nan nan nan nan nan nan nan nan nan nan nan nan nan nan nan nan nan nan nan nan nan nan nan nan nan nan nan nan nan nan nan nan nan nan
267 262 262 263 266 266 nan nan nan nan nan nan nan nan nan nan nan nan nan nan nan nan nan nan nan nan nan nan nan nan nan nan nan nan nan nan nan nan nan nan nan nan nan nan nan nan nan nan nan